Location: Berlijn
(52.5200°N, 13.4050°E)
Time: 04:56:00
(UTC+02:00)

Envisat - Pass Details

Date: 26 September 2021
Orbit: 764 x 766 km, 98.2° (Epoch: 23 October)

Event Time Altitude Azimuth Distance (km) Brightness Sun altitude
Rises 05:17:58 0° 23° (NNE) 3,245 6.9 -15.9°
Reaches altitude 10° 05:20:44 10° 37° (NE) 2,313 6.3 -15.5°
Maximum altitude 05:24:49 24° 91° (E) 1,561 5.5 -15.0°
Drops below altitude 10° 05:28:52 10° 144° (SE) 2,299 5.7 -14.4°
Sets 05:31:35 0° 158° (SSE) 3,219 6.3 -14.0°
